Regional Weather Roundup
Issued by NWS

Home | Current Version | Previous Version | Text Only | Print | Product List | Glossary Off
Versions: 1 2 3 4 5 6 7 8 9 10 11 12 13 14 15 16 17 18 19 20 21 22 23 24 25 26 27 28 29 30 31 32 33 34 35 36 37 38 39 40 41 42 43 44 45 46 47 48 49 50

000
ASUS43 KMKX 230521
RWRWI

WISCONSIN REGIONAL WEATHER ROUNDUP
NATIONAL WEATHER SERVICE MILWAUKEE/SULLIVAN WI
1200 AM CDT SAT AUG 23 2014

NOTE: "FAIR" INDICATES FEW OR NO CLOUDS BELOW 12,000 FEET WITH NO
SIGNIFICANT WEATHER AND/OR OBSTRUCTIONS TO VISIBILITY.

WIZ001-002-006>008-014>016-023>028-230600-
NORTHWEST WISCONSIN

CITY           SKY/WX    TMP DP  RH WIND       PRES   REMARKS
SUPERIOR ARPT  CLOUDY    62  61  96 CALM      30.06F
ASHLAND        CLOUDY    63  62  97 CALM      30.06S
HAYWARD        CLOUDY    65  64  97 NE3       30.05F
SIREN          CLOUDY    67  64  93 CALM      30.05R
RICE LAKE      PTCLDY    67  65  93 CALM      30.04S
LADYSMITH      PTCLDY    68  66  93 N3        30.05S
EAU CLAIRE     PTCLDY    70  69  97 CALM      30.00S
MENOMONIE      MOCLDY    70  68  95 NW5       30.02S
NEW RICHMOND   MOCLDY    69  68  97 N3        30.03S
OSCEOLA        CLOUDY    70  70  99 N5        30.05S
$$

WIZ003>005-009-010-017-018-230600-
NORTH CENTRAL WISCONSIN

CITY           SKY/WX    TMP DP  RH WIND       PRES   REMARKS
WOODRUFF       CLOUDY    69  67  92 N3        30.05S FOG
RHINELANDER    FOG       68  68 100 CALM      30.05S VSB 1/4
EAGLE RIVER    LGT RAIN  69  69 100 CALM      30.04S VSB 1/4
LAND O LAKES   FOG       69  69 100 N3        30.06S VSB 3/4
PHILLIPS       CLOUDY    65  65  97 N6        30.04S
TOMAHAWK       CLOUDY    68  67  96 CALM      30.05R FOG
MEDFORD        CLOUDY    69  69  99 NE3       30.03S FOG
MERRILL        FOG       69  69 100 CALM      30.03S VSB 1/2
$$

WIZ029-030-035-036-043>047-230600-
CENTRAL WISCONSIN

CITY           SKY/WX    TMP DP  RH WIND       PRES   REMARKS
WAUSAU         CLOUDY    73  71  93 E5        30.00S FOG
MOSINEE        CLOUDY    72  72 100 E5        30.02S FOG
MARSHFIELD     CLOUDY    74  72  93 NE5       30.00S FOG
STEVENS POINT  MOCLDY    72  70  94 E5        30.01S
WAUPACA        MOCLDY    73  71  93 E3        30.01R FOG
WAUTOMA        CLOUDY    74  73  96 CALM      30.00R
WISC RAPIDS    CLOUDY    74  72  93 E6        30.00S
CAMP DOUGLAS   FOG       70  70 100 W3        29.98S VSB 1/4
$$

WIZ011>013-019>022-031-037>040-048>050-230600-
NORTHEAST WISCONSIN

CITY           SKY/WX    TMP DP  RH WIND       PRES   REMARKS
ANTIGO         CLOUDY    69  69  99 SE7       30.04S FOG
STURGEON BAY   CLOUDY    68  64  88 E5        30.02S
GREEN BAY      CLOUDY    71  69  93 E6        30.01S FOG
MANITOWOC      FOG       66  66 100 CALM      30.01S VSB 1/4
APPLETON       CLOUDY    70  68  94 E3        30.01S FOG
CLINTONVILLE   CLOUDY    70  68  94 E3        30.01S FOG
OSHKOSH        MOCLDY    72  70  93 SE5       29.99S
$$

WIZ032>034-041-042-053>061-230600-
SOUTHWEST WISCONSIN

CITY           SKY/WX    TMP DP  RH WIND       PRES   REMARKS
LA CROSSE      PTCLDY    74  71  91 N8        29.97S
SPARTA           N/A     69  68  96 CALM      29.99S
VIROQUA        CLOUDY    73  73 100 NE3       29.99F
BOSCOBEL       CLOUDY    77  75  93 CALM      29.95S FOG
PRAIRIE DU CHI CLOUDY    78  75  91 CALM      29.95S HX  81
PLATTEVILLE    FAIR      77  75  95 SE6       29.98S
$$

WIZ056-057-062-063-064-067-068-230600-
SOUTH CENTRAL WISCONSIN

CITY           SKY/WX    TMP DP  RH WIND       PRES   REMARKS
BARABOO/DELLS  PTCLDY    74  72  91 CALM      29.97F
LONE ROCK      MOCLDY    78  73  84 E3        29.96S HX  81
WATERTOWN      PTCLDY    71  71 100 E5        29.99S
MADISON        MOCLDY    76  73  91 SE5       29.98R
MIDDLETON      CLOUDY    79  78  96 SE5       29.98S HX  83
MONROE         CLOUDY    73  73 100 S6        29.98S FOG
JANESVILLE     MOCLDY    77  73  88 SE5       29.97F FOG
$$

WIZ051-052-058>065-066-070>072-230600-
SOUTHEAST WISCONSIN

CITY           SKY/WX    TMP DP  RH WIND       PRES   REMARKS
MILWAUKEE      FOG       70  68  93 E3        30.00S VSB 1/8
WAUKESHA       CLOUDY    68  68 100 E3        30.01S FOG
MILWAUKEE/TIMM FOG       68  66  94 CALM      30.01S VSB 3/4
RACINE         FOG       70  69  97 NE3       30.02S VSB 1/4
BURLINGTON     CLOUDY    71  70  98 CALM      30.00S FOG
KENOSHA        FOG       72  71  97 NE3       30.00S VSB 1
FOND DU LAC    MOCLDY    71  68  90 SE6       29.99S FOG
SHEBOYGAN      FOG       68  67  96 S3        30.01S VSB 1/4
WEST BEND      FOG       68  66  94 CALM      30.01S VSB<1/4
JUNEAU         MOCLDY    71  44  38 E6        30.01S HAZE
$$

LSZ147-162-230600-
LAKE SUPERIOR

STATION/POSITION TIME  TEMP    WIND        PRES    WAVE
                       AIR SEA DIR/SP/G            HT/PER
                 (UTC) (F)     (DEG/KT/KT) (MB)    (FT/S)
W MID LAKE BUOY  0450   59 58   40/ 12/ 14 1017.5R   2/ 4
DEVILS ISLAND    0500   61      60/  9/ 10 1017.8F
PORT WING        0400   61     360/  6/  6 1017.9
SAXON HARBOR     0440   62        CALM     1017.6S
$$

LMZ867-665-643>646-230600-
LAKE MICHIGAN

STATION/POSITION TIME  TEMP    WIND        PRES    WAVE
                       AIR SEA DIR/SP/G            HT/PER
                 (UTC) (F)     (DEG/KT/KT) (MB)    (FT/S)
N MID LAKE BUOY  0450   68 66  110/  8/ 10 1015.9F   0
NORTHPORT PIER   0400   67     150/  2/  3 1016.3F
SISTER BAY       0411   69     120/  7/  9   N/A
ALGOMA LAKESHORE 0353             CALM       N/A
KEWAUNEE LAKESHO 0500   67      40/  2/  5 1015.3F
SHEBOYGAN LAKESH 0500   68 64  200/  3/  4 1016.1F
ATWATER BUOY     0500   69     330/  2/  2 1016.8F
MILWAUKEE LAKESH 0500   69      30/  3/  4   N/A
S MID LAKE BUOY  0450   70 69   50/  8/ 10 1015.6F   0
KENOSHA   LAKESH 0500   71      40/  9/  9 1015.6S
$$

TC  - TEMPERATURE IN CELSIUS
VSB - VISIBILITY IN STATUTE MILES
WCI - WIND CHILL INDEX
HX  - HEAT INDEX



USA.gov is the U.S. government's official web portal to all federal, state and local government web resources and services.